DW1389 Weather Reports


Display with metric or nautical units.
time (UTC)temp
F
wind
direction
speed
MPH
gust
MPH
rain 1hr
in
rain 24hr
in
rain mn
in
humidity
%
barometer
mb
20260901220200 99 0 3.0 7.0 0.00 0.00 0.00 40 1012.0
20260901215657 99 63 2.0 9.0 0.00 0.00 0.00 39 1012.0
20260901215234 98 103 3.0 9.0 0.00 0.00 0.00 41 1012.0
20260901215225 98 31 3.0 9.0 0.00 0.00 0.00 40 1012.0
20260901213906 98 27 4.0 11.0 0.00 0.00 0.00 41 1012.1
20260901213406 98 89 4.0 11.0 0.00 0.00 0.00 41 1012.1
20260901212907 98 354 2.0 8.0 0.00 0.00 0.00 40 1012.1
20260901212406 98 11 2.0 6.0 0.00 0.00 0.00 41 1012.1
20260901211906 97 147 2.0 6.0 0.00 0.00 0.00 42 1012.2
20260901211650 96 71 2.0 6.0 0.00 0.00 0.00 42 1012.3
20260901210906 96 338 2.0 5.0 0.00 0.00 0.00 43 1012.3
20260901210406 96 22 3.0 9.0 0.00 0.00 0.00 43 1012.4
20260901205946 97 61 3.0 6.0 0.00 0.00 0.00 43 1012.6
20260901205935 96 59 3.0 9.0 0.00 0.00 0.00 43 1012.5
20260901204905 98 39 2.0 6.0 0.00 0.00 0.00 41 1012.6
20260901204407 98 250 2.0 6.0 0.00 0.00 0.00 42 1012.7
20260901204151 99 18 2.0 6.0 0.00 0.00 0.00 40 1012.7
20260901203406 100 33 2.0 6.0 0.00 0.00 0.00 40 1012.8
20260901202903 97 112 1.0 6.0 0.00 0.00 0.00 43 1012.9
20260901202402 96 0 2.0 6.0 0.00 0.00 0.00 43 1012.9
20260901201901 97 46 2.0 6.0 0.00 0.00 0.00 43 1013.0
20260901201441 97 16 2.0 5.0 0.00 0.00 0.00 41 1013.1
20260901201424 98 84 2.0 5.0 0.00 0.00 0.00 41 1013.1
20260901200401 96 11 2.0 6.0 0.00 0.00 0.00 43 1013.2
20260901195901 95 27 2.0 6.0 0.00 0.00 0.00 44 1013.3
20260901195401 96 50 2.0 4.0 0.00 0.00 0.00 44 1013.4
20260901194901 96 89 2.0 6.0 0.00 0.00 0.00 44 1013.5
20260901194625 98 9 2.0 6.0 0.00 0.00 0.00 43 1013.5
20260901193905 97 6 2.0 4.0 0.00 0.00 0.00 43 1013.5
20260901193330 96 243 2.0 6.0 0.00 0.00 0.00 45 1013.6
20260901192830 96 172 2.0 6.0 0.00 0.00 0.00 43 1013.7
20260901192330 97 36 2.0 7.0 0.00 0.00 0.00 43 1013.7
20260901192118 97 289 2.0 7.0 0.00 0.00 0.00 43 1013.8
20260901191329 97 274 2.0 7.0 0.00 0.00 0.00 44 1013.8
20260901190833 98 340 3.0 8.0 0.00 0.00 0.00 44 1013.9
20260901190306 97 85 2.0 2.0 0.00 0.00 0.00 44 1014.1
20260901190228 97 356 2.0 4.0 0.00 0.00 0.00 44 1014.2
20260901185502 97 356 2.0 9.0 0.00 0.00 0.00 44 1014.2
20260901185001 96 45 2.0 9.0 0.00 0.00 0.00 44 1014.2
20260901184502 95 265 2.0 5.0 0.00 0.00 0.00 47 1014.3
20260901184234 95 7 2.0 6.0 0.00 0.00 0.00 47 1014.4
20260901184203 95 9 2.0 6.0 0.00 0.00 0.00 47 1014.4
20260901183002 96 43 2.0 6.0 0.00 0.00 0.00 47 1014.5
20260901182501 96 18 2.0 6.0 0.00 0.00 0.00 47 1014.6
20260901182000 96 0 2.0 6.0 0.00 0.00 0.00 48 1014.7
20260901181501 95 202 2.0 8.0 0.00 0.00 0.00 47 1014.7
20260901181001 95 69 3.0 8.0 0.00 0.00 0.00 47 1014.9
20260901180502 95 80 3.0 7.0 0.00 0.00 0.00 47 1014.9
20260901180002 95 346 2.0 6.0 0.00 0.00 0.00 47 1015.0
20260901175501 95 337 2.0 6.0 0.00 0.00 0.00 47 1015.2
20260901175001 95 331 2.0 7.0 0.00 0.00 0.00 48 1015.3
20260901174502 94 345 3.0 7.0 0.00 0.00 0.00 48 1015.3
20260901174000 94 74 2.0 6.0 0.00 0.00 0.00 48 1015.4
20260901173500 95 3 2.0 4.0 0.00 0.00 0.00 48 1015.4
20260901173003 95 123 2.0 7.0 0.00 0.00 0.00 49 1015.5
20260901172534 94 340 2.0 6.0 0.00 0.00 0.00 50 1015.7
20260901172525 94 324 2.0 7.0 0.00 0.00 0.00 48 1015.6
20260901171502 93 0 2.0 6.0 0.00 0.00 0.00 51 1015.7
20260901171002 93 326 2.0 6.0 0.00 0.00 0.00 51 1015.8
20260901170501 93 20 2.0 6.0 0.00 0.00 0.00 51 1015.9
20260901170242 94 21 2.0 6.0 0.00 0.00 0.00 50 1015.9
20260901165502 94 273 3.0 6.0 0.00 0.00 0.00 50 1016.0
20260901165002 92 338 2.0 6.0 0.00 0.00 0.00 52 1015.9
20260901164505 92 338 2.0 6.0 0.00 0.00 0.00 52 1015.9
20260901164001 92 20 2.0 5.0 0.00 0.00 0.00 53 1016.0
20260901163538 92 150 2.0 6.0 0.00 0.00 0.00 52 1016.0
20260901163526 92 194 2.0 6.0 0.00 0.00 0.00 52 1016.0
20260901162503 92 0 1.0 6.0 0.00 0.00 0.00 53 1016.1
20260901162001 92 280 2.0 7.0 0.00 0.00 0.00 54 1016.2
20260901161501 92 40 2.0 7.0 0.00 0.00 0.00 54 1016.2
20260901161243 92 69 2.0 5.0 0.00 0.00 0.00 56 1016.2
20260901160501 92 107 2.0 5.0 0.00 0.00 0.00 56 1016.2
20260901160002 92 124 1.0 5.0 0.00 0.00 0.00 56 1016.2
20260901155501 92 0 1.0 5.0 0.00 0.00 0.00 56 1016.2
20260901155001 92 87 1.0 5.0 0.00 0.00 0.00 55 1016.2
20260901154501 92 207 1.0 3.0 0.00 0.00 0.00 55 1016.2
20260901154001 91 338 1.0 4.0 0.00 0.00 0.00 57 1016.2
20260901153501 91 154 1.0 4.0 0.00 0.00 0.00 58 1016.2
20260901153001 91 71 1.0 3.0 0.00 0.00 0.00 58 1016.2
20260901152501 90 0 1.0 4.0 0.00 0.00 0.00 58 1016.2
20260901152001 89 0 1.0 5.0 0.00 0.00 0.00 61 1016.2
20260901151501 88 181 1.0 5.0 0.00 0.00 0.00 64 1016.2
20260901151245 89 247 1.0 4.0 0.00 0.00 0.00 62 1016.2
20260901150500 88 183 2.0 4.0 0.00 0.00 0.00 65 1016.2
20260901150001 87 0 2.0 4.0 0.00 0.00 0.00 67 1016.2
20260901145500 87 203 2.0 5.0 0.00 0.00 0.00 66 1016.2
20260901145001 87 173 2.0 5.0 0.00 0.00 0.00 68 1016.2
20260901144502 87 204 1.0 4.0 0.00 0.00 0.00 68 1016.2
20260901144040 86 237 2.0 4.0 0.00 0.00 0.00 71 1016.4
20260901144028 87 214 2.0 4.0 0.00 0.00 0.00 69 1016.3
20260901143001 86 230 1.0 5.0 0.00 0.00 0.00 70 1016.4
20260901142502 85 0 1.0 5.0 0.00 0.00 0.00 73 1016.4
20260901142001 85 221 1.0 4.0 0.00 0.00 0.00 72 1016.5
20260901141745 84 231 2.0 4.0 0.00 0.00 0.00 76 1016.5
20260901141002 83 217 2.0 4.0 0.00 0.00 0.00 75 1016.5
20260901140722 84 233 2.0 4.0 0.00 0.00 0.00 74 1016.5
20260901140248 84 264 1.0 4.0 0.00 0.00 0.00 75 1016.6
20260901135501 84 228 1.0 3.0 0.00 0.00 0.00 74 1016.6
20260901135316 84 217 1.0 4.0 0.00 0.00 0.00 75 1016.5
20260901135312 84 222 1.0 3.0 0.00 0.00 0.00 73 1016.6
20260901134001 84 228 1.0 4.0 0.00 0.00 0.00 75 1016.4
20260901133500 84 179 1.0 2.0 0.00 0.00 0.00 75 1016.4
20260901133234 83 0 1.0 3.0 0.00 0.00 0.00 77 1016.4
20260901132504 82 264 1.0 3.0 0.00 0.00 0.00 79 1016.4
20260901132229 82 234 1.0 3.0 0.00 0.00 0.00 80 1016.4
20260901131501 82 213 1.0 2.0 0.00 0.00 0.00 80 1016.4
20260901131000 81 207 1.0 2.0 0.00 0.00 0.00 81 1016.3
20260901130949 80 0 1.0 2.0 0.00 0.00 0.00 84 1016.2
20260901130001 80 222 1.0 2.0 0.00 0.00 0.00 85 1016.1
20260901125501 79 282 1.0 2.0 0.00 0.00 0.00 85 1016.0
20260901125001 79 0 0.0 1.0 0.00 0.00 0.00 86 1016.0
20260901124501 78 225 0.0 2.0 0.00 0.00 0.00 87 1015.9
20260901124000 78 0 0.0 2.0 0.00 0.00 0.00 87 1015.9
20260901123502 78 189 0.0 1.0 0.00 0.00 0.00 88 1015.9
20260901123003 78 0 1.0 1.0 0.00 0.00 0.00 88 1015.8
20260901122729 78 215 1.0 1.0 0.00 0.00 0.00 88 1015.7
20260901122001 78 195 1.0 2.0 0.00 0.00 0.00 87 1015.6
20260901121504 78 211 1.0 2.0 0.00 0.00 0.00 87 1015.6
20260901121004 78 218 1.0 2.0 0.00 0.00 0.00 87 1015.6
20260901120500 78 223 1.0 2.0 0.00 0.00 0.00 87 1015.6
20260901120227 78 206 1.0 2.0 0.00 0.00 0.00 87 1015.5
20260901115501 78 215 2.0 3.0 0.00 0.00 0.00 87 1015.5
20260901115002 78 223 2.0 3.0 0.00 0.00 0.00 86 1015.4
20260901114728 78 229 2.0 3.0 0.00 0.00 0.00 86 1015.4
20260901114001 78 203 2.0 3.0 0.00 0.00 0.00 86 1015.5
20260901113502 78 219 2.0 3.0 0.00 0.00 0.00 86 1015.6
20260901113001 78 222 1.0 2.0 0.00 0.00 0.00 86 1015.6
20260901112502 78 233 2.0 3.0 0.00 0.00 0.00 86 1015.6
20260901112004 79 239 2.0 3.0 0.00 0.00 0.00 85 1015.5
20260901111725 78 233 1.0 2.0 0.00 0.00 0.00 85 1015.5
20260901111001 79 199 1.0 2.0 0.00 0.00 0.00 85 1015.5
20260901110502 79 239 2.0 4.0 0.00 0.00 0.00 85 1015.5
20260901110004 79 209 2.0 4.0 0.00 0.00 0.00 85 1015.5
20260901105501 79 191 2.0 3.0 0.00 0.00 0.00 85 1015.4
20260901105002 79 186 2.0 3.0 0.00 0.00 0.00 85 1015.4
20260901104503 79 240 2.0 3.0 0.00 0.00 0.00 85 1015.4
20260901104001 79 219 2.0 2.0 0.00 0.00 0.00 85 1015.3
20260901103501 79 245 1.0 2.0 0.00 0.00 0.00 85 1015.2
20260901103232 79 219 1.0 2.0 0.00 0.00 0.00 86 1015.2
20260901102502 79 227 1.0 2.0 0.00 0.00 0.00 85 1015.2
20260901102002 79 290 1.0 2.0 0.00 0.00 0.00 85 1015.2
20260901101502 79 240 1.0 2.0 0.00 0.00 0.00 85 1015.0
20260901101001 79 231 2.0 3.0 0.00 0.00 0.00 85 1015.2
20260901100501 79 204 2.0 3.0 0.00 0.00 0.00 84 1015.2
20260901100002 79 167 2.0 4.0 0.00 0.00 0.00 84 1015.2
20260901095502 79 198 2.0 4.0 0.00 0.00 0.00 84 1015.3
20260901095228 79 199 2.0 4.0 0.00 0.00 0.00 84 1015.2
20260901094736 79 141 2.0 4.0 0.00 0.00 0.00 84 1015.2
20260901094002 79 204 2.0 4.0 0.00 0.00 0.00 83 1015.2
20260901093501 79 198 2.0 4.0 0.00 0.00 0.00 83 1015.2
20260901093005 79 242 2.0 3.0 0.00 0.00 0.00 83 1015.3
20260901092502 79 226 2.0 3.0 0.00 0.00 0.00 83 1015.3
20260901092003 79 218 2.0 4.0 0.00 0.00 0.00 83 1015.3
20260901091503 79 185 2.0 4.0 0.00 0.00 0.00 82 1015.3
20260901091002 79 218 1.0 3.0 0.00 0.00 0.00 82 1015.3
20260901090731 79 233 0.0 2.0 0.00 0.00 0.00 82 1015.3
20260901090002 80 295 1.0 2.0 0.00 0.00 0.00 81 1015.4
20260901085502 80 269 1.0 2.0 0.00 0.00 0.00 81 1015.3
20260901085002 80 301 1.0 2.0 0.00 0.00 0.00 80 1015.3
20260901084502 80 115 1.0 3.0 0.00 0.00 0.00 80 1015.3
20260901084002 80 90 1.0 3.0 0.00 0.00 0.00 80 1015.2
20260901083501 80 156 1.0 2.0 0.00 0.00 0.00 80 1015.2
20260901083002 80 0 1.0 2.0 0.00 0.00 0.00 79 1015.2
20260901082502 80 289 1.0 2.0 0.00 0.00 0.00 79 1015.2
20260901082456 80 287 1.0 2.0 0.00 0.00 0.00 79 1015.2
20260901081502 80 186 1.0 3.0 0.00 0.00 0.00 78 1015.2
20260901081002 80 176 1.0 3.0 0.00 0.00 0.00 78 1015.2
20260901080502 80 243 1.0 2.0 0.00 0.00 0.00 78 1015.3
20260901075948 81 273 1.0 3.0 0.00 0.00 0.00 78 1015.3
20260901075448 81 291 1.0 3.0 0.00 0.00 0.00 77 1015.3
20260901074948 81 283 2.0 3.0 0.00 0.00 0.00 77 1015.3
20260901074447 81 222 2.0 3.0 0.00 0.00 0.00 77 1015.3
20260901073948 81 211 1.0 3.0 0.00 0.00 0.00 77 1015.3
20260901073715 81 277 1.0 3.0 0.00 0.00 0.00 76 1015.3
20260901072947 81 244 1.0 3.0 0.00 0.00 0.00 76 1015.4
20260901072448 81 0 1.0 2.0 0.00 0.00 0.00 76 1015.4
20260901071948 81 0 1.0 2.0 0.00 0.00 0.00 76 1015.4
20260901071448 81 277 1.0 2.0 0.00 0.00 0.00 76 1015.5
20260901070949 82 217 1.0 2.0 0.00 0.00 0.00 75 1015.4
20260901070923 82 0 1.0 2.0 0.00 0.00 0.00 75 1015.4
20260901065931 82 148 1.0 2.0 0.00 0.00 0.00 75 1015.3
20260901065431 82 108 1.0 2.0 0.00 0.00 0.00 75 1015.4
20260901064930 82 268 2.0 4.0 0.00 0.00 0.00 75 1015.4
20260901064659 82 226 2.0 4.0 0.00 0.00 0.00 74 1015.3
20260901063930 82 187 2.0 2.0 0.00 0.00 0.00 74 1015.3
20260901063659 82 88 2.0 4.0 0.00 0.00 0.00 74 1015.3
20260901062929 82 163 2.0 4.0 0.00 0.00 0.00 73 1015.2
20260901062431 83 76 2.0 6.0 0.00 0.00 0.00 72 1015.2
20260901061930 83 258 2.0 6.0 0.00 0.00 0.00 72 1015.2
20260901061430 83 245 2.0 5.0 0.00 0.00 0.00 72 1015.2
20260901061203 83 280 2.0 5.0 0.00 0.00 0.00 71 1015.0
20260901060433 83 317 2.0 5.0 0.00 0.00 0.00 71 1014.9
20260901055929 83 24 2.0 5.0 0.00 0.00 0.00 70 1014.9
20260901055430 83 199 2.0 5.0 0.00 0.00 0.00 70 1014.9
20260901054931 83 165 2.0 5.0 0.00 0.00 0.00 69 1014.9
20260901054429 83 279 2.0 6.0 0.00 0.00 0.00 69 1014.8
20260901053929 83 175 2.0 6.0 0.00 0.00 0.00 69 1014.8
20260901053429 84 228 2.0 5.0 0.00 0.00 0.00 69 1014.9
20260901052930 84 268 2.0 6.0 0.00 0.00 0.00 68 1014.9
20260901052429 84 179 2.0 6.0 0.00 0.00 0.00 68 1014.9
20260901051929 84 341 2.0 5.0 0.00 0.00 0.00 68 1014.8
20260901051655 84 105 1.0 4.0 0.00 0.00 0.00 67 1014.7
20260901051156 84 255 2.0 4.0 0.00 0.00 0.00 67 1014.7
20260901050429 84 196 2.0 4.0 0.00 0.00 0.00 66 1014.6
20260901045930 85 114 2.0 4.0 0.00 0.00 0.00 66 1014.6
20260901045431 85 223 2.0 5.0 0.00 0.00 0.00 66 1014.5
20260901045210 85 314 2.0 5.0 0.00 0.00 0.00 65 1014.4
20260901044430 85 226 2.0 5.0 0.00 0.00 0.00 65 1014.4
20260901043930 85 228 2.0 6.0 0.00 0.00 0.00 65 1014.4
20260901043428 85 71 2.0 6.0 0.00 0.00 0.00 65 1014.4
20260901042928 85 169 2.0 8.0 0.00 0.00 0.00 64 1014.4
20260901042427 85 249 2.0 8.0 0.00 0.00 0.00 64 1014.4
20260901041922 85 145 2.0 5.0 0.00 0.00 0.00 64 1014.3
20260901041406 85 63 2.0 4.0 0.00 0.00 0.00 63 1014.3
20260901040907 86 88 2.0 4.0 0.00 0.00 0.00 63 1014.3
20260901040407 86 142 3.0 5.0 0.00 0.00 0.00 62 1014.4
20260901040133 86 107 3.0 6.0 0.00 0.00 0.00 62 1014.4
20260901035401 86 242 2.0 6.0 0.00 0.00 0.00 61 1014.3
20260901035143 86 129 3.0 6.0 0.00 0.00 0.00 60 1014.3
20260901034402 86 83 3.0 5.0 0.00 0.00 0.00 60 1014.2
20260901033903 86 86 3.0 9.0 0.00 0.00 0.00 59 1014.2
20260901033400 87 104 3.0 9.0 0.00 0.00 0.00 58 1014.3
20260901032900 87 89 3.0 6.0 0.00 0.00 0.00 57 1014.3
20260901032405 87 88 2.0 7.0 0.00 0.00 0.00 56 1014.2
20260901031901 87 11 3.0 7.0 0.00 0.00 0.00 55 1014.2
20260901031401 87 122 4.0 7.0 0.00 0.00 0.00 54 1014.2
20260901030902 88 138 2.0 5.0 0.00 0.00 0.00 53 1014.0
20260901030402 88 115 2.0 5.0 0.00 0.00 0.00 53 1014.0
20260901025901 88 110 2.0 6.0 0.00 0.00 0.00 52 1013.9
20260901025402 88 111 2.0 6.0 0.00 0.00 0.00 50 1013.8
20260901024901 88 107 2.0 6.0 0.00 0.00 0.00 49 1013.7
20260901024402 89 123 2.0 4.0 0.00 0.00 0.00 48 1013.7
20260901023902 89 120 2.0 4.0 0.00 0.00 0.00 47 1013.6
20260901023404 89 219 2.0 4.0 0.00 0.00 0.00 45 1013.5
20260901022904 89 21 2.0 4.0 0.00 0.00 0.00 45 1013.4
20260901022352 89 78 1.0 4.0 0.00 0.00 0.00 44 1013.3
20260901021851 90 89 2.0 5.0 0.00 0.00 0.00 43 1013.2
20260901021341 90 88 2.0 5.0 0.00 0.00 0.00 43 1013.1
20260901020838 90 306 2.0 4.0 0.00 0.00 0.00 43 1013.1
20260901020338 90 48 2.0 4.0 0.00 0.00 0.00 42 1013.0
20260901015831 90 91 2.0 4.0 0.00 0.00 0.00 42 1012.9
20260901015330 90 91 2.0 4.0 0.00 0.00 0.00 42 1012.8
20260901014830 91 82 2.0 3.0 0.00 0.00 0.00 42 1012.8
20260901014330 91 43 2.0 3.0 0.00 0.00 0.00 42 1012.8
20260901014106 91 83 2.0 3.0 0.00 0.00 0.00 41 1012.8
20260901014100 91 110 2.0 4.0 0.00 0.00 0.00 41 1012.7
20260901012830 91 77 2.0 4.0 0.00 0.00 0.00 41 1012.7
20260901012559 91 9 1.0 4.0 0.00 0.00 0.00 41 1012.7
20260901011831 92 77 2.0 4.0 0.00 0.00 0.00 41 1012.6
20260901011324 92 95 2.0 4.0 0.00 0.00 0.00 41 1012.6
20260901010824 92 87 2.0 4.0 0.00 0.00 0.00 41 1012.6
20260901010324 93 38 2.0 4.0 0.00 0.00 0.00 40 1012.5
20260901005824 93 66 2.0 5.0 0.00 0.00 0.00 40 1012.5
20260901005317 93 88 2.0 6.0 0.00 0.00 0.00 39 1012.5
20260901005059 94 95 2.0 6.0 0.00 0.00 0.00 39 1012.5
20260901004315 94 3 2.0 7.0 0.00 0.00 0.00 38 1012.5
20260901003812 94 72 2.0 7.0 0.00 0.00 0.00 38 1012.5
20260901003312 94 145 2.0 7.0 0.00 0.00 0.00 38 1012.5
20260901002811 95 86 2.0 7.0 0.00 0.00 0.00 38 1012.5
20260901002312 95 339 2.0 5.0 0.00 0.00 0.00 38 1012.5
20260901001809 95 51 2.0 5.0 0.00 0.00 0.00 37 1012.4
20260901001312 96 106 1.0 6.0 0.00 0.00 0.00 37 1012.3
20260901000807 96 147 2.0 7.0 0.00 0.00 0.00 36 1012.3
20260901000303 96 357 2.0 7.0 0.00 0.00 0.00 36 1012.3
20260831235801 96 94 2.0 5.0 0.00 0.00 0.00 35 1012.3
20260831235545 96 32 2.0 6.0 0.00 0.00 0.00 36 1012.3
20260831234802 96 324 3.0 7.0 0.00 0.00 0.00 36 1012.3
20260831234301 97 352 3.0 7.0 0.00 0.00 0.00 36 1012.3
20260831233802 97 17 3.0 8.0 0.00 0.00 0.00 36 1012.3
20260831233301 97 136 3.0 8.0 0.00 0.00 0.00 36 1012.3
20260831233043 97 20 2.0 5.0 0.00 0.00 0.00 36 1012.3
20260831232305 97 8 2.0 6.0 0.00 0.00 0.00 36 1012.3
20260831231802 97 96 3.0 7.0 0.00 0.00 0.00 36 1012.3
20260831231300 98 177 2.0 7.0 0.00 0.00 0.00 35 1012.3
20260831231042 97 175 3.0 8.0 0.00 0.00 0.00 35 1012.3
20260831230301 97 357 2.0 8.0 0.00 0.00 0.00 36 1012.4
20260831225801 97 14 2.0 6.0 0.00 0.00 0.00 35 1012.3
20260831225301 97 85 3.0 7.0 0.00 0.00 0.00 34 1012.4
20260831224802 97 103 3.0 7.0 0.00 0.00 0.00 35 1012.5
20260831224337 97 0 3.0 9.0 0.00 0.00 0.00 37 1012.4
20260831224324 97 153 3.0 6.0 0.00 0.00 0.00 36 1012.4
20260831223302 98 336 3.0 9.0 0.00 0.00 0.00 38 1012.5
20260831222802 99 24 2.0 6.0 0.00 0.00 0.00 36 1012.5
20260831222301 100 308 2.0 5.0 0.00 0.00 0.00 35 1012.6
20260831221802 99 208 2.0 5.0 0.00 0.00 0.00 35 1012.6
20260831221301 99 82 2.0 6.0 0.00 0.00 0.00 35 1012.6
20260831220804 99 319 2.0 6.0 0.00 0.00 0.00 34 1012.6